Year,Month,Day,Hour,Minute,Value (Times are PST for temperature in C)
2006,06,25,00,00,16.40
2006,06,25,00,01,16.40
2006,06,25,00,02,16.40
2006,06,25,00,03,16.40
2006,06,25,00,04,16.40
2006,06,25,00,05,16.40
2006,06,25,00,06,16.40
2006,06,25,00,07,16.40
2006,06,25,00,08,16.30
2006,06,25,00,09,16.30
2006,06,25,00,10,16.20
2006,06,25,00,11,16.20
2006,06,25,00,12,16.20
2006,06,25,00,13,16.20
2006,06,25,00,14,16.10
2006,06,25,00,15,16.10
2006,06,25,00,16,16.10
2006,06,25,00,17,16.00
2006,06,25,00,18,15.90
2006,06,25,00,19,15.90
2006,06,25,00,20,15.80
2006,06,25,00,21,15.80
2006,06,25,00,22,15.80
2006,06,25,00,23,15.80
2006,06,25,00,24,15.80
2006,06,25,00,25,15.80
2006,06,25,00,26,15.80
2006,06,25,00,27,15.80
2006,06,25,00,28,15.70
2006,06,25,00,29,15.70
2006,06,25,00,30,15.70
2006,06,25,00,31,15.70
2006,06,25,00,32,15.60
2006,06,25,00,33,15.60
2006,06,25,00,34,15.60
2006,06,25,00,35,15.50
2006,06,25,00,36,15.50
2006,06,25,00,37,15.50
2006,06,25,00,38,15.50
2006,06,25,00,39,15.40
2006,06,25,00,40,15.40
2006,06,25,00,41,15.40
2006,06,25,00,42,15.40
2006,06,25,00,43,15.40
2006,06,25,00,44,15.30
2006,06,25,00,45,15.30
2006,06,25,00,46,15.30
2006,06,25,00,47,15.30
2006,06,25,00,48,15.30
2006,06,25,00,49,15.30
2006,06,25,00,50,15.20
2006,06,25,00,51,15.20
2006,06,25,00,52,15.20
2006,06,25,00,53,15.20
2006,06,25,00,54,15.20
2006,06,25,00,55,15.20
2006,06,25,00,56,15.20
2006,06,25,00,57,15.30
2006,06,25,00,58,15.30
2006,06,25,00,59,15.40
2006,06,25,01,00,15.40
2006,06,25,01,01,15.50
2006,06,25,01,02,15.50
2006,06,25,01,03,15.60
2006,06,25,01,04,15.60
2006,06,25,01,05,15.60
2006,06,25,01,06,15.60
2006,06,25,01,07,15.60
2006,06,25,01,08,15.60
2006,06,25,01,09,15.60
2006,06,25,01,10,15.60
2006,06,25,01,11,15.60
2006,06,25,01,12,15.60
2006,06,25,01,13,15.60
2006,06,25,01,14,15.60
2006,06,25,01,15,15.60
2006,06,25,01,16,15.50
2006,06,25,01,17,15.50
2006,06,25,01,18,15.50
2006,06,25,01,19,15.40
2006,06,25,01,20,15.40
2006,06,25,01,21,15.30
2006,06,25,01,22,15.30
2006,06,25,01,23,15.30
2006,06,25,01,24,15.30
2006,06,25,01,25,15.20
2006,06,25,01,26,15.20
2006,06,25,01,27,15.20
2006,06,25,01,28,15.10
2006,06,25,01,29,15.10
2006,06,25,01,30,15.10
2006,06,25,01,31,15.00
2006,06,25,01,32,15.00
2006,06,25,01,33,14.90
2006,06,25,01,34,14.90
2006,06,25,01,35,14.80
2006,06,25,01,36,14.80
2006,06,25,01,37,14.80
2006,06,25,01,38,14.70
2006,06,25,01,39,14.70
2006,06,25,01,40,14.70
2006,06,25,01,41,14.60
2006,06,25,01,42,14.60
2006,06,25,01,43,14.60
2006,06,25,01,44,14.50
2006,06,25,01,45,14.50
2006,06,25,01,46,14.50
2006,06,25,01,47,14.50
2006,06,25,01,48,14.50
2006,06,25,01,49,14.50
2006,06,25,01,50,14.50
2006,06,25,01,51,14.50
2006,06,25,01,52,14.40
2006,06,25,01,53,14.40
2006,06,25,01,54,14.40
2006,06,25,01,55,14.40
2006,06,25,01,56,14.30
2006,06,25,01,57,14.30
2006,06,25,01,58,14.30
2006,06,25,01,59,14.30
2006,06,25,02,00,14.30
2006,06,25,02,01,14.30
2006,06,25,02,02,14.20
2006,06,25,02,03,14.20
2006,06,25,02,04,14.20
2006,06,25,02,05,14.20
2006,06,25,02,06,14.20
2006,06,25,02,07,14.20
2006,06,25,02,08,14.20
2006,06,25,02,09,14.20
2006,06,25,02,10,14.20
2006,06,25,02,11,14.20
2006,06,25,02,12,14.20
2006,06,25,02,13,14.20
2006,06,25,02,14,14.20
2006,06,25,02,15,14.20
2006,06,25,02,16,14.20
2006,06,25,02,17,14.20
2006,06,25,02,18,14.20
2006,06,25,02,19,14.20
2006,06,25,02,20,14.20
2006,06,25,02,21,14.30
2006,06,25,02,22,14.30
2006,06,25,02,23,14.30
2006,06,25,02,24,14.40
2006,06,25,02,25,14.40
2006,06,25,02,26,14.40
2006,06,25,02,27,14.40
2006,06,25,02,28,14.30
2006,06,25,02,29,14.30
2006,06,25,02,30,14.30
2006,06,25,02,31,14.20
2006,06,25,02,32,14.20
2006,06,25,02,33,14.20
2006,06,25,02,34,14.10
2006,06,25,02,35,14.10
2006,06,25,02,36,14.10
2006,06,25,02,37,14.00
2006,06,25,02,38,14.00
2006,06,25,02,39,14.00
2006,06,25,02,40,13.90
2006,06,25,02,41,13.90
2006,06,25,02,42,13.80
2006,06,25,02,43,13.80
2006,06,25,02,44,13.70
2006,06,25,02,45,13.70
2006,06,25,02,46,13.70
2006,06,25,02,47,13.70
2006,06,25,02,48,13.60
2006,06,25,02,49,13.60
2006,06,25,02,50,13.50
2006,06,25,02,51,13.50
2006,06,25,02,52,13.50
2006,06,25,02,53,13.50
2006,06,25,02,54,13.50
2006,06,25,02,55,13.50
2006,06,25,02,56,13.50
2006,06,25,02,57,13.50
2006,06,25,02,58,13.50
2006,06,25,02,59,13.50
2006,06,25,03,00,13.50
2006,06,25,03,01,13.50
2006,06,25,03,02,13.50
2006,06,25,03,03,13.50
2006,06,25,03,04,13.50
2006,06,25,03,05,13.50
2006,06,25,03,06,13.50
2006,06,25,03,07,13.50
2006,06,25,03,08,13.50
2006,06,25,03,09,13.50
2006,06,25,03,10,13.50
2006,06,25,03,11,13.50
2006,06,25,03,12,13.50
2006,06,25,03,13,13.50
2006,06,25,03,14,13.40
2006,06,25,03,15,13.40
2006,06,25,03,16,13.40
2006,06,25,03,17,13.40
2006,06,25,03,18,13.40
2006,06,25,03,19,13.40
2006,06,25,03,20,13.40
2006,06,25,03,21,13.40
2006,06,25,03,22,13.40
2006,06,25,03,23,13.40
2006,06,25,03,24,13.40
2006,06,25,03,25,13.40
2006,06,25,03,26,13.40
2006,06,25,03,27,13.40
2006,06,25,03,28,13.40
2006,06,25,03,29,13.40
2006,06,25,03,30,13.40
2006,06,25,03,31,13.40
2006,06,25,03,32,13.40
2006,06,25,03,33,13.40
2006,06,25,03,34,13.40
2006,06,25,03,35,13.40
2006,06,25,03,36,13.50
2006,06,25,03,37,13.50
2006,06,25,03,38,13.60
2006,06,25,03,39,13.60
2006,06,25,03,40,13.60
2006,06,25,03,41,13.70
2006,06,25,03,42,13.70
2006,06,25,03,43,13.70
2006,06,25,03,44,13.80
2006,06,25,03,45,13.80
2006,06,25,03,46,13.90
2006,06,25,03,47,13.90
2006,06,25,03,48,14.00
2006,06,25,03,49,14.00
2006,06,25,03,50,14.00
2006,06,25,03,51,14.10
2006,06,25,03,52,14.10
2006,06,25,03,53,14.20
2006,06,25,03,54,14.20
2006,06,25,03,55,14.20
2006,06,25,03,56,14.20
2006,06,25,03,57,14.20
2006,06,25,03,58,14.20
2006,06,25,03,59,14.20
2006,06,25,04,00,14.20
2006,06,25,04,01,14.10
2006,06,25,04,02,14.10
2006,06,25,04,03,14.00
2006,06,25,04,04,14.00
2006,06,25,04,05,13.90
2006,06,25,04,06,13.90
2006,06,25,04,07,13.90
2006,06,25,04,08,13.90
2006,06,25,04,09,13.90
2006,06,25,04,10,14.00
2006,06,25,04,11,14.00
2006,06,25,04,12,14.10
2006,06,25,04,13,14.10
2006,06,25,04,14,14.20
2006,06,25,04,15,14.20
2006,06,25,04,16,14.20
2006,06,25,04,17,14.20
2006,06,25,04,18,14.30
2006,06,25,04,19,14.30
2006,06,25,04,20,14.30
2006,06,25,04,21,14.30
2006,06,25,04,22,14.30
2006,06,25,04,23,14.30
2006,06,25,04,24,14.40
2006,06,25,04,25,14.40
2006,06,25,04,26,14.50
2006,06,25,04,27,14.50
2006,06,25,04,28,14.60
2006,06,25,04,29,14.60
2006,06,25,04,30,14.70
2006,06,25,04,31,14.70
2006,06,25,04,32,14.80
2006,06,25,04,33,14.80
2006,06,25,04,34,14.80
2006,06,25,04,35,14.80
2006,06,25,04,36,14.80
2006,06,25,04,37,14.90
2006,06,25,04,38,14.90
2006,06,25,04,39,15.00
2006,06,25,04,40,15.00
2006,06,25,04,41,15.00
2006,06,25,04,42,15.10
2006,06,25,04,43,15.10
2006,06,25,04,44,15.10
2006,06,25,04,45,15.00
2006,06,25,04,46,15.00
2006,06,25,04,47,15.00
2006,06,25,04,48,15.00
2006,06,25,04,49,15.00
2006,06,25,04,50,15.00
2006,06,25,04,51,15.00
2006,06,25,04,52,15.10
2006,06,25,04,53,15.10
2006,06,25,04,54,15.10
2006,06,25,04,55,15.20
2006,06,25,04,56,15.20
2006,06,25,04,57,15.30
2006,06,25,04,58,15.20
2006,06,25,04,59,15.10
2006,06,25,05,00,15.00
2006,06,25,05,01,14.90
2006,06,25,05,02,14.80
2006,06,25,05,03,14.70
2006,06,25,05,04,14.70
2006,06,25,05,05,14.70
2006,06,25,05,06,14.70
2006,06,25,05,07,14.70
2006,06,25,05,08,14.70
2006,06,25,05,09,14.80
2006,06,25,05,10,14.80
2006,06,25,05,11,14.80
2006,06,25,05,12,14.80
2006,06,25,05,13,14.80
2006,06,25,05,14,14.80
2006,06,25,05,15,14.80
2006,06,25,05,16,14.80
2006,06,25,05,17,14.80
2006,06,25,05,18,14.80
2006,06,25,05,19,14.80
2006,06,25,05,20,14.80
2006,06,25,05,21,14.70
2006,06,25,05,22,14.70
2006,06,25,05,23,14.60
2006,06,25,05,24,14.60
2006,06,25,05,25,14.60
2006,06,25,05,26,14.50
2006,06,25,05,27,14.50
2006,06,25,05,28,14.40
2006,06,25,05,29,14.30
2006,06,25,05,30,14.30
2006,06,25,05,31,14.20
2006,06,25,05,32,14.20
2006,06,25,05,33,14.20
2006,06,25,05,34,14.20
2006,06,25,05,35,14.20
2006,06,25,05,36,14.10
2006,06,25,05,37,14.10
2006,06,25,05,38,14.10
2006,06,25,05,39,14.10
2006,06,25,05,40,14.10
2006,06,25,05,41,14.10
2006,06,25,05,42,14.10
2006,06,25,05,43,14.20
2006,06,25,05,44,14.20
2006,06,25,05,45,14.20
2006,06,25,05,46,14.30
2006,06,25,05,47,14.30
2006,06,25,05,48,14.40
2006,06,25,05,49,14.40
2006,06,25,05,50,14.50
2006,06,25,05,51,14.50
2006,06,25,05,52,14.60
2006,06,25,05,53,14.60
2006,06,25,05,54,14.60
2006,06,25,05,55,14.80
2006,06,25,05,56,14.80
2006,06,25,05,57,14.80
2006,06,25,05,58,15.00
2006,06,25,05,59,15.00
2006,06,25,06,00,15.10
2006,06,25,06,01,15.20
2006,06,25,06,02,15.20
2006,06,25,06,03,15.30
2006,06,25,06,04,15.30
2006,06,25,06,05,15.30
2006,06,25,06,06,15.30
2006,06,25,06,07,15.40
2006,06,25,06,08,15.40
2006,06,25,06,09,15.40
2006,06,25,06,10,15.50
2006,06,25,06,11,15.50
2006,06,25,06,12,15.50
2006,06,25,06,13,15.60
2006,06,25,06,14,15.60
2006,06,25,06,15,15.60
2006,06,25,06,16,15.70
2006,06,25,06,17,15.70
2006,06,25,06,18,15.70
2006,06,25,06,19,15.80
2006,06,25,06,20,15.80
2006,06,25,06,21,15.80
2006,06,25,06,22,15.80
2006,06,25,06,23,15.80
2006,06,25,06,24,15.80
2006,06,25,06,25,15.80
2006,06,25,06,26,15.90
2006,06,25,06,27,16.00
2006,06,25,06,28,16.10
2006,06,25,06,29,16.10
2006,06,25,06,30,16.20
2006,06,25,06,31,16.20
2006,06,25,06,32,16.30
2006,06,25,06,33,16.30
2006,06,25,06,34,16.40
2006,06,25,06,35,16.50
2006,06,25,06,36,16.60
2006,06,25,06,37,16.60
2006,06,25,06,38,16.60
2006,06,25,06,39,16.60
2006,06,25,06,40,16.60
2006,06,25,06,41,16.60
2006,06,25,06,42,16.60
2006,06,25,06,43,16.70
2006,06,25,06,44,16.70
2006,06,25,06,45,16.80
2006,06,25,06,46,16.80
2006,06,25,06,47,16.80
2006,06,25,06,48,16.70
2006,06,25,06,49,16.70
2006,06,25,06,50,16.70
2006,06,25,06,51,16.60
2006,06,25,06,52,16.40
2006,06,25,06,53,16.40
2006,06,25,06,54,16.40
2006,06,25,06,55,16.40
2006,06,25,06,56,16.40
2006,06,25,06,57,16.40
2006,06,25,06,58,16.40
2006,06,25,06,59,16.40
2006,06,25,07,00,16.50
2006,06,25,07,01,16.40
2006,06,25,07,02,16.40
2006,06,25,07,03,16.40
2006,06,25,07,04,16.50
2006,06,25,07,05,16.60
2006,06,25,07,06,16.70
2006,06,25,07,07,16.80
2006,06,25,07,08,16.90
2006,06,25,07,09,17.00
2006,06,25,07,10,17.20
2006,06,25,07,11,17.40
2006,06,25,07,12,17.50
2006,06,25,07,13,17.70
2006,06,25,07,14,17.80
2006,06,25,07,15,18.00
2006,06,25,07,16,18.10
2006,06,25,07,17,18.20
2006,06,25,07,18,18.30
2006,06,25,07,19,18.50
2006,06,25,07,20,18.60
2006,06,25,07,21,18.70
2006,06,25,07,22,18.80
2006,06,25,07,23,18.90
2006,06,25,07,24,19.00
2006,06,25,07,25,19.10
2006,06,25,07,26,19.20
2006,06,25,07,27,19.30
2006,06,25,07,28,19.40
2006,06,25,07,29,19.40
2006,06,25,07,30,19.50
2006,06,25,07,31,19.60
2006,06,25,07,32,19.70
2006,06,25,07,33,19.90
2006,06,25,07,34,19.90
2006,06,25,07,35,20.10
2006,06,25,07,36,20.20
2006,06,25,07,37,20.20
2006,06,25,07,38,20.40
2006,06,25,07,39,20.40
2006,06,25,07,40,20.50
2006,06,25,07,41,20.70
2006,06,25,07,42,20.90
2006,06,25,07,43,20.90
2006,06,25,07,44,21.10
2006,06,25,07,45,21.20
2006,06,25,07,46,21.20
2006,06,25,07,47,21.30
2006,06,25,07,48,21.30
2006,06,25,07,49,21.30
2006,06,25,07,50,21.30
2006,06,25,07,51,21.40
2006,06,25,07,52,21.40
2006,06,25,07,53,21.40
2006,06,25,07,54,21.60
2006,06,25,07,55,21.60
2006,06,25,07,56,21.40
2006,06,25,07,57,21.40
2006,06,25,07,58,21.60
2006,06,25,07,59,21.60
2006,06,25,08,00,21.60
2006,06,25,08,01,21.70
2006,06,25,08,02,21.70
2006,06,25,08,03,21.70
2006,06,25,08,04,21.70
2006,06,25,08,05,21.70
2006,06,25,08,06,21.80
2006,06,25,08,07,21.80
2006,06,25,08,08,21.80
2006,06,25,08,09,21.90
2006,06,25,08,10,21.90
2006,06,25,08,11,21.90
2006,06,25,08,12,21.90
2006,06,25,08,13,21.90
2006,06,25,08,14,22.00
2006,06,25,08,15,22.10
2006,06,25,08,16,22.20
2006,06,25,08,17,22.40
2006,06,25,08,18,22.50
2006,06,25,08,19,22.60
2006,06,25,08,20,22.70
2006,06,25,08,21,22.80
2006,06,25,08,22,22.80
2006,06,25,08,23,22.80
2006,06,25,08,24,22.90
2006,06,25,08,25,22.90
2006,06,25,08,26,23.00
2006,06,25,08,27,23.10
2006,06,25,08,28,23.20
2006,06,25,08,29,23.30
2006,06,25,08,30,23.40
2006,06,25,08,31,23.50
2006,06,25,08,32,23.60
2006,06,25,08,33,23.60
2006,06,25,08,34,23.70
2006,06,25,08,35,23.80
2006,06,25,08,36,23.90
2006,06,25,08,37,23.90
2006,06,25,08,38,23.90
2006,06,25,08,39,23.90
2006,06,25,08,40,23.90
2006,06,25,08,41,23.90
2006,06,25,08,42,24.10
2006,06,25,08,43,24.10
2006,06,25,08,44,24.10
2006,06,25,08,45,24.20
2006,06,25,08,46,24.20
2006,06,25,08,47,24.30
2006,06,25,08,48,24.30
2006,06,25,08,49,24.40
2006,06,25,08,50,24.50
2006,06,25,08,51,24.60
2006,06,25,08,52,24.60
2006,06,25,08,53,24.60
2006,06,25,08,54,24.70
2006,06,25,08,55,24.70
2006,06,25,08,56,24.80
2006,06,25,08,57,24.80
2006,06,25,08,58,24.80
2006,06,25,08,59,24.90
2006,06,25,09,00,24.80
2006,06,25,09,01,24.90
2006,06,25,09,02,24.90
2006,06,25,09,03,24.90
2006,06,25,09,04,25.00
2006,06,25,09,05,25.00
2006,06,25,09,06,25.00
2006,06,25,09,07,25.10
2006,06,25,09,08,25.10
2006,06,25,09,09,25.10
2006,06,25,09,10,25.10
2006,06,25,09,11,25.10
2006,06,25,09,12,25.20
2006,06,25,09,13,25.20
2006,06,25,09,14,25.20
2006,06,25,09,15,25.20
2006,06,25,09,16,25.20
2006,06,25,09,17,25.20
2006,06,25,09,18,25.20
2006,06,25,09,19,25.20
2006,06,25,09,20,25.30
2006,06,25,09,21,25.40
2006,06,25,09,22,25.40
2006,06,25,09,23,25.40
2006,06,25,09,24,25.20
2006,06,25,09,25,25.10
2006,06,25,09,26,25.20
2006,06,25,09,27,25.20
2006,06,25,09,28,25.30
2006,06,25,09,29,25.30
2006,06,25,09,30,25.30
2006,06,25,09,31,25.20
2006,06,25,09,32,25.20
2006,06,25,09,33,25.10
2006,06,25,09,34,25.20
2006,06,25,09,35,25.20
2006,06,25,09,36,25.30
2006,06,25,09,37,25.30
2006,06,25,09,38,25.40
2006,06,25,09,39,25.40
2006,06,25,09,40,25.50
2006,06,25,09,41,25.60
2006,06,25,09,42,25.60
2006,06,25,09,43,25.50
2006,06,25,09,44,25.40
2006,06,25,09,45,25.20
2006,06,25,09,46,25.10
2006,06,25,09,47,25.10
2006,06,25,09,48,25.20
2006,06,25,09,49,25.20
2006,06,25,09,50,25.40
2006,06,25,09,51,25.60
2006,06,25,09,52,25.60
2006,06,25,09,53,25.60
2006,06,25,09,54,25.60
2006,06,25,09,55,25.50
2006,06,25,09,56,25.50
2006,06,25,09,57,25.50
2006,06,25,09,58,25.50
2006,06,25,09,59,25.40
2006,06,25,10,00,25.50
2006,06,25,10,01,25.50
2006,06,25,10,02,25.50
2006,06,25,10,03,25.40
2006,06,25,10,04,25.40
2006,06,25,10,05,25.50
2006,06,25,10,06,25.70
2006,06,25,10,07,25.80
2006,06,25,10,08,25.70
2006,06,25,10,09,25.60
2006,06,25,10,10,25.60
2006,06,25,10,11,25.50
2006,06,25,10,12,25.50
2006,06,25,10,13,25.50
2006,06,25,10,14,25.60
2006,06,25,10,15,25.80
2006,06,25,10,16,25.90
2006,06,25,10,17,26.00
2006,06,25,10,18,25.90
2006,06,25,10,19,25.80
2006,06,25,10,20,25.70
2006,06,25,10,21,25.40
2006,06,25,10,22,25.30
2006,06,25,10,23,25.20
2006,06,25,10,24,25.10
2006,06,25,10,25,25.20
2006,06,25,10,26,25.20
2006,06,25,10,27,25.20
2006,06,25,10,28,25.20
2006,06,25,10,29,25.20
2006,06,25,10,30,25.30
2006,06,25,10,31,25.40
2006,06,25,10,32,25.50
2006,06,25,10,33,25.50
2006,06,25,10,34,25.40
2006,06,25,10,35,25.40
2006,06,25,10,36,25.30
2006,06,25,10,37,25.40
2006,06,25,10,38,25.40
2006,06,25,10,39,25.50
2006,06,25,10,40,25.60
2006,06,25,10,41,25.80
2006,06,25,10,42,25.80
2006,06,25,10,43,25.90
2006,06,25,10,44,26.10
2006,06,25,10,45,26.30
2006,06,25,10,46,26.30
2006,06,25,10,47,26.30
2006,06,25,10,48,26.20
2006,06,25,10,49,26.20
2006,06,25,10,50,26.20
2006,06,25,10,51,26.20
2006,06,25,10,52,26.20
2006,06,25,10,53,26.30
2006,06,25,10,54,26.30
2006,06,25,10,55,26.40
2006,06,25,10,56,26.50
2006,06,25,10,57,26.70
2006,06,25,10,58,26.80
2006,06,25,10,59,26.90
2006,06,25,11,00,26.90
2006,06,25,11,01,26.80
2006,06,25,11,02,26.90
2006,06,25,11,03,27.10
2006,06,25,11,04,27.10
2006,06,25,11,05,27.20
2006,06,25,11,06,27.30
2006,06,25,11,07,27.30
2006,06,25,11,08,27.30
2006,06,25,11,09,27.30
2006,06,25,11,10,27.30
2006,06,25,11,11,27.30
2006,06,25,11,12,27.30
2006,06,25,11,13,27.30
2006,06,25,11,14,27.40
2006,06,25,11,15,27.30
2006,06,25,11,16,27.30
2006,06,25,11,17,27.30
2006,06,25,11,18,27.30
2006,06,25,11,19,27.40
2006,06,25,11,20,27.40
2006,06,25,11,21,27.40
2006,06,25,11,22,27.50
2006,06,25,11,23,27.70
2006,06,25,11,24,27.90
2006,06,25,11,25,28.00
2006,06,25,11,26,28.00
2006,06,25,11,27,27.90
2006,06,25,11,28,27.60
2006,06,25,11,29,27.40
2006,06,25,11,30,27.30
2006,06,25,11,31,27.20
2006,06,25,11,32,27.10
2006,06,25,11,33,27.10
2006,06,25,11,34,27.10
2006,06,25,11,35,27.10
2006,06,25,11,36,27.10
2006,06,25,11,37,27.20
2006,06,25,11,38,27.20
2006,06,25,11,39,27.20
2006,06,25,11,40,27.30
2006,06,25,11,41,27.30
2006,06,25,11,42,27.30
2006,06,25,11,43,27.30
2006,06,25,11,44,27.30
2006,06,25,11,45,27.20
2006,06,25,11,46,27.30
2006,06,25,11,47,27.30
2006,06,25,11,48,27.30
2006,06,25,11,49,27.30
2006,06,25,11,50,27.40
2006,06,25,11,51,27.60
2006,06,25,11,52,27.70
2006,06,25,11,53,27.70
2006,06,25,11,54,27.80
2006,06,25,11,55,27.70
2006,06,25,11,56,27.70
2006,06,25,11,57,27.70
2006,06,25,11,58,27.70
2006,06,25,11,59,27.70
2006,06,25,12,00,27.90
2006,06,25,12,01,27.80
2006,06,25,12,02,28.00
2006,06,25,12,03,28.10
2006,06,25,12,04,28.20
2006,06,25,12,05,28.20
2006,06,25,12,06,28.20
2006,06,25,12,07,28.20
2006,06,25,12,08,28.10
2006,06,25,12,09,28.20
2006,06,25,12,10,28.30
2006,06,25,12,11,28.40
2006,06,25,12,12,28.40
2006,06,25,12,13,28.40
2006,06,25,12,14,28.40
2006,06,25,12,15,28.30
2006,06,25,12,16,28.30
2006,06,25,12,17,28.40
2006,06,25,12,18,28.30
2006,06,25,12,19,28.20
2006,06,25,12,20,28.10
2006,06,25,12,21,28.10
2006,06,25,12,22,28.10
2006,06,25,12,23,28.30
2006,06,25,12,24,28.20
2006,06,25,12,25,28.10
2006,06,25,12,26,27.90
2006,06,25,12,27,27.80
2006,06,25,12,28,27.70
2006,06,25,12,29,27.70
2006,06,25,12,30,27.70
2006,06,25,12,31,27.70
2006,06,25,12,32,27.70
2006,06,25,12,33,27.90
2006,06,25,12,34,27.90
2006,06,25,12,35,28.00
2006,06,25,12,36,28.10
2006,06,25,12,37,28.20
2006,06,25,12,38,28.10
2006,06,25,12,39,28.10
2006,06,25,12,40,28.10
2006,06,25,12,41,28.10
2006,06,25,12,42,28.20
2006,06,25,12,43,28.30
2006,06,25,12,44,28.30
2006,06,25,12,45,28.40
2006,06,25,12,46,28.40
2006,06,25,12,47,28.30
2006,06,25,12,48,28.20
2006,06,25,12,49,28.20
2006,06,25,12,50,28.20
2006,06,25,12,51,28.30
2006,06,25,12,52,28.30
2006,06,25,12,53,28.40
2006,06,25,12,54,28.40
2006,06,25,12,55,28.40
2006,06,25,12,56,28.50
2006,06,25,12,57,28.60
2006,06,25,12,58,28.50
2006,06,25,12,59,28.30
2006,06,25,13,00,28.40
2006,06,25,13,01,28.60
2006,06,25,13,02,28.70
2006,06,25,13,03,28.60
2006,06,25,13,04,28.60
2006,06,25,13,05,28.70
2006,06,25,13,06,28.90
2006,06,25,13,07,29.10
2006,06,25,13,08,29.20
2006,06,25,13,09,29.20
2006,06,25,13,10,29.30
2006,06,25,13,11,29.40
2006,06,25,13,12,29.30
2006,06,25,13,13,29.30
2006,06,25,13,14,29.20
2006,06,25,13,15,29.10
2006,06,25,13,16,29.00
2006,06,25,13,17,29.10
2006,06,25,13,18,29.20
2006,06,25,13,19,29.40
2006,06,25,13,20,29.50
2006,06,25,13,21,29.30
2006,06,25,13,22,29.20
2006,06,25,13,23,29.10
2006,06,25,13,24,29.10
2006,06,25,13,25,29.10
2006,06,25,13,26,29.30
2006,06,25,13,27,29.30
2006,06,25,13,28,29.40
2006,06,25,13,29,29.50
2006,06,25,13,30,29.50
2006,06,25,13,31,29.70
2006,06,25,13,32,29.70
2006,06,25,13,33,29.70
2006,06,25,13,34,29.60
2006,06,25,13,35,29.60
2006,06,25,13,36,29.60
2006,06,25,13,37,29.60
2006,06,25,13,38,29.60
2006,06,25,13,39,29.70
2006,06,25,13,40,29.70
2006,06,25,13,41,29.60
2006,06,25,13,42,29.50
2006,06,25,13,43,29.50
2006,06,25,13,44,29.70
2006,06,25,13,45,29.70
2006,06,25,13,46,29.80
2006,06,25,13,47,30.10
2006,06,25,13,48,30.20
2006,06,25,13,49,30.30
2006,06,25,13,50,30.10
2006,06,25,13,51,30.20
2006,06,25,13,52,30.10
2006,06,25,13,53,29.90
2006,06,25,13,54,29.90
2006,06,25,13,55,29.90
2006,06,25,13,56,29.80
2006,06,25,13,57,29.90
2006,06,25,13,58,30.20
2006,06,25,13,59,30.10
2006,06,25,14,00,30.10
2006,06,25,14,01,30.00
2006,06,25,14,02,29.90
2006,06,25,14,03,29.90
2006,06,25,14,04,30.00
2006,06,25,14,05,29.90
2006,06,25,14,06,29.90
2006,06,25,14,07,29.70
2006,06,25,14,08,29.60
2006,06,25,14,09,29.50
2006,06,25,14,10,29.60
2006,06,25,14,11,29.80
2006,06,25,14,12,30.00
2006,06,25,14,13,30.10
2006,06,25,14,14,30.30
2006,06,25,14,15,30.40
2006,06,25,14,16,30.60
2006,06,25,14,17,30.60
2006,06,25,14,18,30.70
2006,06,25,14,19,30.70
2006,06,25,14,20,30.70
2006,06,25,14,21,30.90
2006,06,25,14,22,31.10
2006,06,25,14,23,31.00
2006,06,25,14,24,30.90
2006,06,25,14,25,30.90
2006,06,25,14,26,30.90
2006,06,25,14,27,30.90
2006,06,25,14,28,30.80
2006,06,25,14,29,30.60
2006,06,25,14,30,30.40
2006,06,25,14,31,30.40
2006,06,25,14,32,30.40
2006,06,25,14,33,30.40
2006,06,25,14,34,30.60
2006,06,25,14,35,30.60
2006,06,25,14,36,30.40
2006,06,25,14,37,30.40
2006,06,25,14,38,30.40
2006,06,25,14,39,30.30
2006,06,25,14,40,30.40
2006,06,25,14,41,30.60
2006,06,25,14,42,30.80
2006,06,25,14,43,30.90
2006,06,25,14,44,31.00
2006,06,25,14,45,31.00
2006,06,25,14,46,31.00
2006,06,25,14,47,30.80
2006,06,25,14,48,30.80
2006,06,25,14,49,30.90
2006,06,25,14,50,31.00
2006,06,25,14,51,31.00
2006,06,25,14,52,31.00
2006,06,25,14,53,31.10
2006,06,25,14,54,31.20
2006,06,25,14,55,31.20
2006,06,25,14,56,31.20
2006,06,25,14,57,31.30
2006,06,25,14,58,31.30
2006,06,25,14,59,31.30
2006,06,25,15,00,31.30
2006,06,25,15,01,31.30
2006,06,25,15,02,31.20
2006,06,25,15,03,31.20
2006,06,25,15,04,31.20
2006,06,25,15,05,31.20
2006,06,25,15,06,31.20
2006,06,25,15,07,31.20
2006,06,25,15,08,31.30
2006,06,25,15,09,31.40
2006,06,25,15,10,31.40
2006,06,25,15,11,31.50
2006,06,25,15,12,31.60
2006,06,25,15,13,31.70
2006,06,25,15,14,31.90
2006,06,25,15,15,32.00
2006,06,25,15,16,32.10
2006,06,25,15,17,32.20
2006,06,25,15,18,32.30
2006,06,25,15,19,32.20
2006,06,25,15,20,32.20
2006,06,25,15,21,32.10
2006,06,25,15,22,32.00
2006,06,25,15,23,31.80
2006,06,25,15,24,31.70
2006,06,25,15,25,31.70
2006,06,25,15,26,31.80
2006,06,25,15,27,31.70
2006,06,25,15,28,31.70
2006,06,25,15,29,31.70
2006,06,25,15,30,31.70
2006,06,25,15,31,31.60
2006,06,25,15,32,31.60
2006,06,25,15,33,31.50
2006,06,25,15,34,31.60
2006,06,25,15,35,31.50
2006,06,25,15,36,31.40
2006,06,25,15,37,31.40
2006,06,25,15,38,31.40
2006,06,25,15,39,31.40
2006,06,25,15,40,31.40
2006,06,25,15,41,31.50
2006,06,25,15,42,31.50
2006,06,25,15,43,31.50
2006,06,25,15,44,31.60
2006,06,25,15,45,31.80
2006,06,25,15,46,31.80
2006,06,25,15,47,31.80
2006,06,25,15,48,31.80
2006,06,25,15,49,31.80
2006,06,25,15,50,31.80
2006,06,25,15,51,31.80
2006,06,25,15,52,31.80
2006,06,25,15,53,31.80
2006,06,25,15,54,31.80
2006,06,25,15,55,31.80
2006,06,25,15,56,31.90
2006,06,25,15,57,31.90
2006,06,25,15,58,32.10
2006,06,25,15,59,31.90
2006,06,25,16,00,31.80
2006,06,25,16,01,31.80
2006,06,25,16,02,31.80
2006,06,25,16,03,31.80
2006,06,25,16,04,31.90
2006,06,25,16,05,32.00
2006,06,25,16,06,32.10
2006,06,25,16,07,32.20
2006,06,25,16,08,32.20
2006,06,25,16,09,32.10
2006,06,25,16,10,32.10
2006,06,25,16,11,32.10
2006,06,25,16,12,32.20
2006,06,25,16,13,32.30
2006,06,25,16,14,32.30
2006,06,25,16,15,32.40
2006,06,25,16,16,32.40
2006,06,25,16,17,32.30
2006,06,25,16,18,32.10
2006,06,25,16,19,31.80
2006,06,25,16,20,31.50
2006,06,25,16,21,31.20
2006,06,25,16,22,31.00
2006,06,25,16,23,30.90
2006,06,25,16,24,30.70
2006,06,25,16,25,30.70
2006,06,25,16,26,30.40
2006,06,25,16,27,30.30
2006,06,25,16,28,30.10
2006,06,25,16,29,29.80
2006,06,25,16,30,29.40
2006,06,25,16,31,29.10
2006,06,25,16,32,28.90
2006,06,25,16,33,28.40
2006,06,25,16,34,28.00
2006,06,25,16,35,27.70
2006,06,25,16,36,27.50
2006,06,25,16,37,27.40
2006,06,25,16,38,27.30
2006,06,25,16,39,27.30
2006,06,25,16,40,27.20
2006,06,25,16,41,27.20
2006,06,25,16,42,27.20
2006,06,25,16,43,27.20
2006,06,25,16,44,27.30
2006,06,25,16,45,27.30
2006,06,25,16,46,27.40
2006,06,25,16,47,27.60
2006,06,25,16,48,27.60
2006,06,25,16,49,27.70
2006,06,25,16,50,27.70
2006,06,25,16,51,27.80
2006,06,25,16,52,27.80
2006,06,25,16,53,27.90
2006,06,25,16,54,27.90
2006,06,25,16,55,27.90
2006,06,25,16,56,28.00
2006,06,25,16,57,27.90
2006,06,25,16,58,27.80
2006,06,25,16,59,27.70
2006,06,25,17,00,27.70
2006,06,25,17,01,27.70
2006,06,25,17,02,27.60
2006,06,25,17,03,27.60
2006,06,25,17,04,27.60
2006,06,25,17,05,27.60
2006,06,25,17,06,27.50
2006,06,25,17,07,27.40
2006,06,25,17,08,27.40
2006,06,25,17,09,27.30
2006,06,25,17,10,27.30
2006,06,25,17,11,27.40
2006,06,25,17,12,27.40
2006,06,25,17,13,27.40
2006,06,25,17,14,27.40
2006,06,25,17,15,27.40
2006,06,25,17,16,27.50
2006,06,25,17,17,27.60
2006,06,25,17,18,27.60
2006,06,25,17,19,27.60